Isfahan International Airport

Airport
ICAO code: 
OIFM
IATA Code: 
IFN
Summary
ICAO Region: 
MID
Territory: 
Location: 
Qahjavarestan, Isfahan Province
Serving: 
Isfahan
Elevation: 
5059 ft
Coordinates: 
Aerial View: 
32° 44' 50.34" N, 51° 52' 19.646" E
Metar
Observation
OIFM 272130Z 28012KT 8000 NSC 26/M04 Q1011 A2988
Station
Esfahan
Date/Time
2022-06-27 21:30:00
Wind direction
280°
Wind speed
12 kts
Lowest cloud amount
nil significant cloud
Temperature
26°C
Dew point
-4°C
Humidity
13%
QNH
1011 hPa
Weather condition
n/a

International airport 15km north east of the city of Isfahan, Iran.

Climatology

Cold semi-arid climate (Köppen climate classification BWk).

Runways

Designator Length Width Surface Rops
08L/26R 4397 45 ASP Yes/Yes
08R/26L 4397 45 ASP Yes/Yes
Airport map: 
Aerial View: 

Accidents and Serious Incidents at or in the vicinity of OIFM

SKYbrary Partners:

Safety knowledge contributed by: